Lexington Weather

Lexington, Massachusetts, USA

24°F
3/3/2021 4:20am 
  • Lexington Conditions: Clear
  • Temperature: 24.3°F / -4.3°CWarmer 0.6°F than last hour.
  • Dew Point: 11.3°FIncreased 0.2°Fsince last hour.
  • Relative Humidity: 57%Decreased 1.0% since last hour.
  • Wind: Wind from SW SW 1 mph, 10-min avg: 2 mph, gust: 6 mph
  • Barometer: 29.85 in Steady
  • Visibility: 10 miles
  • Snow Today: 0.0 in
  •   

Regional Weather Roundup
for Boston / Norton, MA

        
000
ASUS41 KBOX 271704
RWRBOX

REGIONAL WEATHER ROUNDUP
NATIONAL WEATHER SERVICE BOSTON/NORTON MA
1200 PM EST SAT FEB 27 2021

NOTE:  "FAIR" INDICATES FEW OR NO CLOUDS BELOW 12,000 FEET WITH NO 
SIGNIFICANT WEATHER AND/OR OBSTRUCTIONS TO VISIBILITY.

MAZALL-271800-
EASTERN MASSACHUSETTS
  
CITY           SKY/WX    TMP DP  RH WIND       PRES   REMARKS
BOSTON         LGT RAIN  38  37  97 SE10      30.17F WCI  31          
BEVERLY        LGT RAIN  39  36  89 SE13      30.16F FOG     WCI  31  
LAWRENCE       CLOUDY    38  34  85 SE7       30.17F                  
BEDFORD        CLOUDY    37  34  89 SE9       30.14F WCI  30          
BLUE HILL        N/A     38  38 100 SE18G28   30.12F WCI  28          
NORWOOD        LGT RAIN  43  38  82 S12       30.15F                  
MARSHFIELD     PTSUNNY   41  41 100 SE10G17   30.18F                  
PLYMOUTH       LGT RAIN  43  40  89 SE10G18   30.16F FOG              
TAUNTON        LGT RAIN  43  40  89 SE14      30.16F FOG              
NEW BEDFORD    LGT RAIN  43  41  93 SE14G21   30.16F FOG              
$$

MAZALL-271800-
CAPE COD AND THE ISLANDS
  
CITY           SKY/WX    TMP DP  RH WIND       PRES   REMARKS
FALMOUTH       DRIZZLE   41  39  93 SE15      30.19F                  
HYANNIS        LGT RAIN  42  39  89 SE12G20   30.18F FOG              
CHATHAM        LGT RAIN  43  38  82 SE13G24   30.23F                  
PROVINCETOWN   LGT RAIN  41  39  93 SE15G21   30.20F                  
NANTUCKET      LGT RAIN  43  41  93 SE15      30.22F                  
MARTHAS VNYRD  LGT RAIN  43  41  93 SE16G26   30.17F FOG              
$$
 
MAZALL-271800-
CENTRAL AND WESTERN MASSACHUSETTS
  
CITY           SKY/WX    TMP DP  RH WIND       PRES   REMARKS
WORCESTER      LGT RAIN  34  32  92 SE8       30.08F VSB<1/4 WCI  27  
FITCHBURG      LGT RAIN  33  33 100 CALM      30.13F FOG              
ORANGE         LGT RAIN  36  34  92 S6        30.10F FOG     WCI  31  
SPRINGFIELD    LGT RAIN  35  35  99 NW9       30.08F FOG     WCI  28  
WESTFIELD      LGT RAIN  33  32  96 N5        30.09F FOG     WCI  29  
NORTH ADAMS    LGT RAIN  41  38  89 NE16G25   30.05F FOG              
PITTSFIELD     LGT RAIN  39  36  89 SE14G21   30.01F FOG     WCI  31  
$$
 
RIZALL-271800-
RHODE ISLAND
  
CITY           SKY/WX    TMP DP  RH WIND       PRES   REMARKS
PROVIDENCE     RAIN      44  42  93 S12       30.14F FOG              
NEWPORT        LGT RAIN  41  40  96 SE14G25   30.12F FOG              
BLOCK ISLAND   LGT RAIN  44  42  93 SE16G24   30.10F                  
SMITHFIELD     LGT RAIN  41  41 100 S9G17     30.12F FOG              
WESTERLY       LGT RAIN  41  41 100 E12       30.11F FOG              
$$
 
CTZALL-271800-
CONNECTICUT
  
CITY           SKY/WX    TMP DP  RH WIND       PRES   REMARKS
BRADLEY INTL   LGT RAIN  36  34  92 CALM      30.07F VSB 3/4          
HARTFORD       RAIN      40  37  89 N5        30.07F VSB 1            
BRIDGEPORT     HVY RAIN  43  41  93 NE13      30.06F FOG              
DANBURY        LGT RAIN  44  40  85 SE5       30.05F FOG              
GROTON         RAIN      43  42  97 E15G23    30.08F FOG              
NEW HAVEN      LGT RAIN  45  43  93 E10       30.05F FOG              
CHESTER        RAIN      45  43  93 SE12G17   30.06F VSB 1            
MERIDEN        RAIN      44  41  89 S6        30.06F FOG              
WILLIMANTIC    LGT RAIN  44  42  93 VRB6      30.09F FOG              
OXFORD         LGT RAIN  42  42 100 SE10      30.05F FOG              
$$

MEZ002-015-021-024-NHZ003-005-008-011-012-014-VTZ005-008-271800-
NORTHERN NEW ENGLAND
  
CITY           SKY/WX    TMP DP  RH WIND       PRES   REMARKS
PORTLAND ME    LGT RAIN  36  35  96 S15G21    30.23F FOG     WCI  27  
BANGOR ME      LGT RAIN  35  31  85 S14G22    30.26F FOG     WCI  26  
CONCORD NH     LGT RAIN  33  30  88 CALM      30.15F FOG              
MANCHESTER NH  LGT RAIN  35  32  88 SE7       30.13F WCI  29          
NASHUA NH      LGT RAIN  35  35 100 SE6       30.14F FOG     WCI  30  
PORTSMOUTH NH  LGT RAIN  37  35  92 SE13      30.16F WCI  28          
JAFFREY NH     MIX PCPN  34  32  92 S9G20     30.08F FOG     WCI  27  
KEENE NH       LGT RAIN  35  33  92 NW3       30.10F FOG              
BURLINGTON VT  LGT SNOW  36  32  85 S10G23    29.96F FOG     WCI  28  
MT. WASHINGTON NOT AVBL                                               
$$

NYZ052-076-271800-
EASTERN NEW YORK
  
CITY           SKY/WX    TMP DP  RH WIND       PRES   REMARKS
ALBANY         LGT RAIN  36  35  96 SE15      30.03F FOG     WCI  27  
NEW YORK CITY  LGT RAIN  48  45  89 S5        30.03F VSB 1            
$$
 
ANZALL-271800-
MARINE OBSERVATIONS
  
STATION/POSITION TIME  TEMP    WIND        PRES    VSBY  WAVE
                       AIR SEA DIR/SP/G                  HT/PER
                 (UTC) (F)     (DEG/KT/KT) (MB)    (MI)  (FT/S)
BOSTON BUOY      1640   39 39  140/ 17/ 21 1022.9F
BUZZARDS BAY     1600          120/ 18/ 20 1024.1F
NANTUCKET SOUND  1640      37  130/ 16/ 19   N/A
MASS BAY-STELLWA 1604   39     150/ 19/ 25 1023.2F  1 7/8  5/ 5
ISLE OF SHOALS   1600   37     150/ 25/ 29 1023.9F
S OF BLOCK IS    1626      40                N/A           5/ 6
$$

......................KEY.........................
  SKY/WX - SKY CONDITION/PRESENT WEATHER
  TMP    - TEMPERATURE IN FAHRENHEIT
  DWPT   - DEWPOINT IN FAHRENHEIT
  RH     - RELATIVE HUMIDITY IN PERCENT
  WIND   - DIRECTION AND SPEED IN MPH
  PRES   - MEAN SEA LEVEL PRESSURE IN INCHES OF HG
  WCI    - WIND CHILL INDEX
  VSB    - VISIBILITY IN MILES
  HX     - HEAT INDEX
  TC     - TEMPERATURE IN CELSIUS
  VRB    - VARIABLE WIND DIRECTION
  N/A    - NOT AVAILABLE
  
      

Other recent Regional Weather Roundups

Wed Mar 3, 4:04am

Wed Mar 3, 3:04am

Wed Mar 3, 2:04am

Wed Mar 3, 1:04am

Wed Mar 3, 12:04am

Tue Mar 2, 11:04pm

Tue Mar 2, 10:05pm

Tue Mar 2, 9:04pm

Tue Mar 2, 8:04pm

Tue Mar 2, 7:04pm

Tue Mar 2, 6:04pm

Tue Mar 2, 5:04pm

Tue Mar 2, 4:05pm

Tue Mar 2, 3:04pm

Tue Mar 2, 2:04pm

Tue Mar 2, 1:04pm

Tue Mar 2, 12:04pm

Tue Mar 2, 11:04am

Tue Mar 2, 10:05am

Tue Mar 2, 9:04am

Tue Mar 2, 8:04am

Tue Mar 2, 7:04am

Tue Mar 2, 6:05am

Tue Mar 2, 5:04am

Tue Mar 2, 4:04am

Tue Mar 2, 3:04am

Tue Mar 2, 2:04am

Tue Mar 2, 1:04am

Tue Mar 2, 12:04am

Mon Mar 1, 11:04pm

Mon Mar 1, 10:04pm

Mon Mar 1, 9:04pm

Mon Mar 1, 8:04pm

Mon Mar 1, 7:04pm

Mon Mar 1, 6:04pm

Mon Mar 1, 5:04pm

Mon Mar 1, 4:05pm

Mon Mar 1, 3:05pm

Mon Mar 1, 2:04pm

Mon Mar 1, 1:04pm

Mon Mar 1, 12:04pm

Mon Mar 1, 11:04am

Mon Mar 1, 10:04am

Mon Mar 1, 9:04am

Mon Mar 1, 8:05am

Mon Mar 1, 7:04am

Mon Mar 1, 6:04am

Mon Mar 1, 5:04am

Mon Mar 1, 4:05am

Mon Mar 1, 3:04am

Mon Mar 1, 2:04am

Mon Mar 1, 1:04am

Mon Mar 1, 12:05am

Sun Feb 28, 11:04pm

Sun Feb 28, 10:04pm

Sun Feb 28, 9:04pm

Sun Feb 28, 8:04pm

Sun Feb 28, 7:04pm

Sun Feb 28, 6:05pm

Sun Feb 28, 5:04pm

Sun Feb 28, 4:05pm

Sun Feb 28, 3:04pm

Sun Feb 28, 2:04pm

Sun Feb 28, 1:04pm

Sun Feb 28, 12:04pm

Sun Feb 28, 11:04am

Sun Feb 28, 10:04am

Sun Feb 28, 9:04am

Sun Feb 28, 8:04am

Sun Feb 28, 7:04am

Sun Feb 28, 6:04am

Sun Feb 28, 5:04am

Sun Feb 28, 4:04am

Sun Feb 28, 3:04am

Sun Feb 28, 2:04am

Sun Feb 28, 1:04am

Sun Feb 28, 12:04am

Sat Feb 27, 11:04pm

Sat Feb 27, 10:04pm

Sat Feb 27, 9:04pm

Sat Feb 27, 8:04pm

Sat Feb 27, 7:04pm

Sat Feb 27, 6:04pm

Sat Feb 27, 5:04pm

Sat Feb 27, 4:04pm

Sat Feb 27, 3:05pm

Sat Feb 27, 2:05pm

Sat Feb 27, 1:04pm

Sat Feb 27, 11:04am

Sat Feb 27, 10:04am

Sat Feb 27, 9:05am

Sat Feb 27, 8:04am

Sat Feb 27, 7:04am

Sat Feb 27, 6:04am

Sat Feb 27, 5:04am

Sat Feb 27, 4:04am

Sat Feb 27, 3:04am

Sat Feb 27, 2:04am

Sat Feb 27, 1:04am

Sat Feb 27, 12:04am

Fri Feb 26, 11:04pm

Fri Feb 26, 10:04pm

Fri Feb 26, 9:04pm

Fri Feb 26, 8:04pm

Fri Feb 26, 7:04pm

Fri Feb 26, 6:04pm

Fri Feb 26, 5:04pm

Fri Feb 26, 4:04pm

Fri Feb 26, 3:04pm

Fri Feb 26, 2:04pm

Fri Feb 26, 1:04pm

Fri Feb 26, 12:04pm

Fri Feb 26, 11:04am

Fri Feb 26, 10:04am

Fri Feb 26, 9:04am

Fri Feb 26, 8:04am

Fri Feb 26, 7:04am

Fri Feb 26, 6:04am

Fri Feb 26, 5:04am

Fri Feb 26, 4:04am

Fri Feb 26, 3:04am

Fri Feb 26, 2:04am

Fri Feb 26, 1:04am

Fri Feb 26, 12:04am

Thu Feb 25, 11:04pm

Thu Feb 25, 10:04pm

Thu Feb 25, 9:04pm

Thu Feb 25, 8:05pm

Thu Feb 25, 7:05pm

Thu Feb 25, 6:04pm

Thu Feb 25, 5:04pm

Thu Feb 25, 4:05pm

Thu Feb 25, 3:05pm

Thu Feb 25, 2:04pm

Thu Feb 25, 1:04pm

Thu Feb 25, 12:05pm

Thu Feb 25, 11:04am

Thu Feb 25, 10:04am

Thu Feb 25, 9:04am

Thu Feb 25, 8:04am

Thu Feb 25, 7:04am

Thu Feb 25, 6:04am

Thu Feb 25, 5:04am

Thu Feb 25, 4:04am

Thu Feb 25, 3:04am

Thu Feb 25, 2:04am

Thu Feb 25, 1:04am

Thu Feb 25, 12:04am

Wed Feb 24, 11:04pm

Wed Feb 24, 10:05pm

Wed Feb 24, 9:04pm

Wed Feb 24, 8:04pm

Wed Feb 24, 7:04pm

Wed Feb 24, 6:04pm

Wed Feb 24, 5:04pm

Wed Feb 24, 4:04pm

Wed Feb 24, 3:04pm

Wed Feb 24, 2:05pm

Wed Feb 24, 1:05pm

Wed Feb 24, 12:05pm

Wed Feb 24, 11:04am

Wed Feb 24, 10:04am

Wed Feb 24, 9:04am

Wed Feb 24, 8:04am

Wed Feb 24, 7:04am

Wed Feb 24, 6:04am

Wed Feb 24, 5:04am

Meta data:

ID: cca1d0a1-20cb-4531-97a1-32abf54d4296
Link: https://api.weather.gov/products/cca1d0a1-20cb-4531-97a1-32abf54d4296